Barcelona, Spain

2:20 PM CET on February 25, 2018 (GMT +0100)
El Prat

Weather History for LEBL - February, 2018

Change the Weather History Date:

Sunday, February 18, 2018

  Actual Average Record
Temperature  
Mean Temperature 52 °F -  
Max Temperature 59 °F 57 °F 66 °F (2006)
Min Temperature 44 °F 43 °F 33 °F (2003)
Degree Days  
Heating Degree Days 14    
Growing Degree Days 2 (Base 50)    
Moisture  
Dew Point 42 °F    
Average Humidity 68    
Maximum Humidity 94    
Minimum Humidity 48    
Precipitation  
Precipitation 0.01 in 0.06 in - ()
Sea Level Pressure  
Sea Level Pressure 30.15 in    
Wind  
Wind Speed 8 mph ()    
Max Wind Speed 16 mph    
Max Gust Speed 26 mph    
Visibility 10.8 miles    
Events      
Averages and records for this station are not official NWS values.
T = Trace of Precipitation, MM = Missing Value Source: Averaged Metar Reports

Daily Weather History Graph

Daily Weather History Graph

Search for Another Location

Airport or City:

Trip Planner

Search our weather history database for the weather conditions in past years. The results will help you decide how hot, cold, wet, or windy it might be!

Date:

Astronomy

Feb. 18, 2018 Rise Set
Actual Time 7:42 AM CET 6:29 PM CET
Civil Twilight 7:14 AM CET 6:57 PM CET
Nautical Twilight 6:42 AM CET 7:29 PM CET
Astronomical Twilight 6:10 AM CET 8:01 PM CET
Moon 9:11 AM CET (2/18) 9:11 PM CET (2/18)
Length of Visible Light 11h 42m
Length of Day
10h 46m
Waxing Crescent, 7% of the Moon is Illuminated
Feb 18
Waxing Crescent
Feb 23
First Quarter
Mar 2
Full
Mar 9
Last Quarter
Mar 17
New

Hourly Weather History & Observations

Time (CET) Temp. Windchill Dew Point Humidity Pressure Visibility Wind Dir Wind Speed Gust Speed Precip Events Conditions
12:00 AM 53.6 °F - 50.0 °F 88% 30.21 in 6.2 mi South 5.8 mph - N/A   Light Drizzle
12:30 AM 53.6 °F - 50.0 °F 88% 30.21 in 6.2 mi South 6.9 mph - N/A   Mostly Cloudy
1:00 AM 55 °F - 52 °F 84% 30.22 in 12 mi SW 11.5 mph - -   Partly Cloudy
1:00 AM 53.6 °F - 51.8 °F 94% 30.21 in 6.2 mi SW 8.1 mph - N/A   Mostly Cloudy
1:30 AM 53.6 °F - 50.0 °F 88% 30.18 in 6.2 mi SW 8.1 mph - N/A   Scattered Clouds
2:00 AM 53 °F - 48 °F 78% 30.20 in 16 mi SW 3.5 mph - -  
2:00 AM 53.6 °F - 48.2 °F 82% 30.18 in 6.2 mi SW 5.8 mph - N/A   Scattered Clouds
2:30 AM 51.8 °F - 46.4 °F 82% 30.18 in 6.2 mi SW 5.8 mph - N/A   Partly Cloudy
3:00 AM 50.0 °F - 44.6 °F 82% 30.18 in 6.2 mi North 3.5 mph - N/A   Partly Cloudy
3:30 AM 50.0 °F - 41.0 °F 71% 30.18 in 6.2 mi North 4.6 mph - N/A   Partly Cloudy
4:00 AM 49 °F - 42 °F 67% 30.18 in 16 mi North 5.8 mph - -   Scattered Clouds
4:00 AM 48.2 °F - 41.0 °F 76% 30.15 in 6.2 mi NNW 6.9 mph - N/A   Partly Cloudy
4:30 AM 48.2 °F - 39.2 °F 71% 30.15 in 6.2 mi NNW 11.5 mph - N/A   Partly Cloudy
5:00 AM 48 °F - 39 °F 62% 30.18 in 19 mi NNW 9.2 mph - -  
5:30 AM 46.4 °F 40.4 °F 37.4 °F 71% 30.18 in 6.2 mi NNW 13.8 mph - N/A   Partly Cloudy
6:00 AM 46 °F - 38 °F 67% 30.19 in 19 mi North 5.8 mph - -  
6:00 AM 46.4 °F 40.7 °F 37.4 °F 71% 30.18 in - NNW 12.7 mph - N/A   Clear
6:30 AM 46.4 °F 41.1 °F 37.4 °F 71% 30.18 in - NNW 11.5 mph - N/A   Clear
7:00 AM 45 °F - 38 °F 68% 30.19 in 16 mi North 10.4 mph - -   Scattered Clouds
7:00 AM 44.6 °F 38.8 °F 37.4 °F 76% 30.18 in 6.2 mi NNW 11.5 mph - N/A   Partly Cloudy
7:30 AM 44.6 °F 37.4 °F 37.4 °F 76% 30.18 in 6.2 mi NNW 16.1 mph - N/A   Partly Cloudy
8:00 AM 45 °F - 38 °F 68% 30.19 in 19 mi North 15.0 mph - -  
8:00 AM 44.6 °F 37.4 °F 37.4 °F 76% 30.18 in 6.2 mi NNW 16.1 mph - N/A   Partly Cloudy
8:30 AM 44.6 °F 38.1 °F 37.4 °F 76% 30.18 in 6.2 mi NNW 13.8 mph 25.3 mph N/A   Partly Cloudy
9:00 AM 47 °F - 38 °F 62% 30.20 in 19 mi North 13.8 mph - -  
9:00 AM 46.4 °F 40.1 °F 37.4 °F 71% 30.18 in 6.2 mi NNW 15.0 mph 26.5 mph N/A   Scattered Clouds
9:30 AM 46.4 °F 40.4 °F 37.4 °F 71% 30.18 in 6.2 mi NW 13.8 mph - N/A   Partly Cloudy
10:00 AM 49 °F - 38 °F 57% 30.20 in 19 mi North 13.8 mph - -   Scattered Clouds
10:00 AM 48.2 °F - 37.4 °F 66% 30.18 in 6.2 mi NNW 13.8 mph - N/A   Partly Cloudy
10:30 AM 50.0 °F - 39.2 °F 66% 30.18 in 6.2 mi NNW 13.8 mph 26.5 mph N/A   Partly Cloudy
11:00 AM 53 °F - 40 °F 50% 30.20 in 14 mi North 12.7 mph - -  
11:00 AM 51.8 °F - 39.2 °F 62% 30.18 in 6.2 mi NNW 12.7 mph - N/A   Mostly Cloudy
11:30 AM 51.8 °F - 39.2 °F 62% 30.18 in 6.2 mi NNW 11.5 mph 23.0 mph N/A   Mostly Cloudy
12:00 PM 53 °F - 40 °F 50% 30.19 in 19 mi North 10.4 mph - -  
12:00 PM 53.6 °F - 39.2 °F 58% 30.18 in 6.2 mi NNW 10.4 mph - N/A   Mostly Cloudy
12:30 PM 55.4 °F - 41.0 °F 58% 30.15 in 6.2 mi NW 8.1 mph 20.7 mph N/A   Partly Cloudy
1:00 PM 58 °F - 44 °F 48% 30.17 in 16 mi ENE 2.3 mph - -   Scattered Clouds
1:00 PM 57.2 °F - 42.8 °F 59% 30.15 in 6.2 mi North 2.3 mph - N/A   Partly Cloudy
1:30 PM 57.2 °F - 41.0 °F 55% 30.15 in 6.2 mi SE 3.5 mph - N/A   Scattered Clouds
2:00 PM 57 °F - 45 °F 54% 30.15 in 19 mi South 6.9 mph - -  
2:00 PM 55.4 °F - 44.6 °F 67% 30.12 in 6.2 mi SSE 4.6 mph - N/A   Partly Cloudy
2:30 PM 55.4 °F - 44.6 °F 67% 30.12 in 6.2 mi South 8.1 mph - N/A   Partly Cloudy
3:00 PM 57 °F - 45 °F 53% 30.13 in 19 mi SW 9.2 mph - -  
3:00 PM 55.4 °F - 44.6 °F 67% 30.12 in 6.2 mi South 8.1 mph - N/A   Partly Cloudy
3:30 PM 55.4 °F - 44.6 °F 67% 30.09 in 6.2 mi SSW 9.2 mph - N/A   Partly Cloudy
4:00 PM 56 °F - 46 °F 59% 30.11 in 19 mi SW 10.4 mph - -   Scattered Clouds
4:00 PM 55.4 °F - 44.6 °F 67% 30.09 in 6.2 mi SSW 10.4 mph - N/A   Partly Cloudy
4:30 PM 55.4 °F - 44.6 °F 67% 30.09 in - SSW 10.4 mph - N/A   Clear
5:00 PM 56 °F - 46 °F 60% 30.11 in 18 mi SW 10.4 mph - -  
5:00 PM 55.4 °F - 44.6 °F 67% 30.09 in - SW 11.5 mph - N/A   Clear
5:30 PM 53.6 °F - 44.6 °F 72% 30.09 in - SW 10.4 mph - N/A   Clear
6:00 PM 55 °F - 43 °F 54% 30.10 in 19 mi WSW 8.1 mph - -  
6:00 PM 53.6 °F - 42.8 °F 67% 30.09 in - SW 9.2 mph - N/A   Clear
6:30 PM 53.6 °F - 42.8 °F 67% 30.09 in - SW 6.9 mph - N/A   Clear
7:00 PM 54 °F - 44 °F 59% 30.11 in 16 mi SW 5.8 mph - -   Mostly Cloudy
7:00 PM 53.6 °F - 42.8 °F 67% 30.09 in - SW 5.8 mph - N/A   Clear
7:30 PM 53.6 °F - 42.8 °F 67% 30.09 in - SW 5.8 mph - N/A   Clear
8:00 PM 53 °F - 43 °F 61% 30.12 in 19 mi WSW 3.5 mph - -  
8:00 PM 53.6 °F - 42.8 °F 67% 30.09 in - SW 5.8 mph - N/A   Clear
8:30 PM 53.6 °F - 42.8 °F 67% 30.09 in - West 5.8 mph - N/A   Clear
9:00 PM 54 °F - 43 °F 57% 30.11 in 19 mi West 2.3 mph - -  
9:00 PM 53.6 °F - 42.8 °F 67% 30.09 in - Variable 2.3 mph - N/A   Clear
9:30 PM 53.6 °F - 42.8 °F 67% 30.09 in - Variable 2.3 mph - N/A   Clear
10:00 PM 53 °F - 44 °F 64% 30.10 in 16 mi NW 3.5 mph - -   Mostly Cloudy
10:00 PM 51.8 °F - 44.6 °F 76% 30.09 in - NNW 3.5 mph - N/A   Clear
11:00 PM 52 °F - 42 °F 61% 30.10 in 19 mi NNW 2.3 mph - -  
11:00 PM 51.8 °F - 42.8 °F 71% 30.09 in 6.2 mi WNW 3.5 mph - N/A   Partly Cloudy
11:30 PM 51.8 °F - 41.0 °F 67% 30.09 in 6.2 mi NW 4.6 mph - N/A   Partly Cloudy